Weather History for PAEM - November, 2013

Change the Weather History Date:

Friday, November 22, 2013

  Actual Average Record
Temperature  
Mean Temperature 2 °F -  
Max Temperature 10 °F 20 °F - (-1)
Min Temperature -7 °F 12 °F - (-1)
Degree Days  
Heating Degree Days 64    
Moisture  
Dew Point 0 °F    
Average Humidity 76    
Maximum Humidity 85    
Minimum Humidity 67    
Precipitation  
Precipitation 0.00 in - - ()
Sea Level Pressure  
Sea Level Pressure 29.29 in    
Wind  
Wind Speed 11 mph (NE)    
Max Wind Speed 20 mph    
Max Gust Speed 26 mph    
Visibility 7 miles    
Events      
Averages and records for this station are not official NWS values.
T = Trace of Precipitation, MM = Missing Value Source: NWS Daily Summary

Daily Weather History Graph

Daily Weather History Graph

Search for Another Location

Airport or City:

Trip Planner

Search our weather history database for the weather conditions in past years. The results will help you decide how hot, cold, wet, or windy it might be!

Date:

Astronomy

Nov. 22, 2013 Rise Set
Actual Time 10:37 AM AKST 4:50 PM AKST
Civil Twilight 9:37 AM AKST 5:50 PM AKST
Nautical Twilight 8:38 AM AKST 6:49 PM AKST
Astronomical Twilight 7:43 AM AKST 7:44 PM AKST
Moon 10:08 PM AKST (11/22) 1:58 PM AKST (11/22)
Length of Visible Light 8h 12m
Length of Day
6h 13m
Waning Gibbous, 77% of the Moon is Illuminated
Nov 22
Waning Gibbous
Nov 25
Last Quarter
Dec 2
New
Dec 9
First Quarter
Dec 17
Full

Hourly Weather History & Observations

Time (AKST) Temp. Windchill Dew Point Humidity Pressure Visibility Wind Dir Wind Speed Gust Speed Precip Events Conditions
12:16 AM 8.6 °F -8.9 °F -0.4 °F 67% 29.40 in 10.0 mi NNE 16.1 mph 24.2 mph N/A   Scattered Clouds
12:36 AM 8.6 °F -9.5 °F -0.4 °F 67% 29.39 in 10.0 mi NNE 17.3 mph 23.0 mph N/A   Mostly Cloudy
12:56 AM 8.6 °F -9.5 °F 1.4 °F 73% 29.38 in 10.0 mi NNE 17.3 mph 25.3 mph N/A   Overcast
1:16 AM 10.4 °F -7.7 °F 1.4 °F 67% 29.38 in 10.0 mi NNE 18.4 mph 24.2 mph N/A   Mostly Cloudy
1:36 AM 10.4 °F -6.6 °F 1.4 °F 67% 29.37 in 10.0 mi NNE 16.1 mph 26.5 mph N/A   Overcast
1:56 AM 10.4 °F -6.0 °F 1.4 °F 67% 29.37 in 10.0 mi NNE 15.0 mph - N/A   Overcast
2:16 AM 10.4 °F -8.2 °F 1.4 °F 67% 29.36 in 5.0 mi NNE 19.6 mph 25.3 mph N/A   Overcast
2:36 AM 10.4 °F -4.8 °F 5.0 °F 79% 29.35 in 2.5 mi NE 12.7 mph - N/A   Overcast
2:56 AM 10.4 °F -6.0 °F 3.2 °F 73% 29.34 in 3.0 mi NNE 15.0 mph 19.6 mph N/A   Overcast
3:16 AM 10.4 °F -6.6 °F 5.0 °F 79% 29.34 in 2.5 mi NNE 16.1 mph 21.9 mph N/A   Mostly Cloudy
3:36 AM 10.4 °F -6.0 °F 3.2 °F 73% 29.33 in 3.0 mi NNE 15.0 mph 21.9 mph N/A   Overcast
3:56 AM 10.4 °F -6.6 °F 5.0 °F 79% 29.33 in 3.0 mi NNE 16.1 mph 19.6 mph N/A   Overcast
4:16 AM 10.4 °F -6.6 °F 5.0 °F 79% 29.32 in 3.0 mi NNE 16.1 mph 19.6 mph N/A   Overcast
4:36 AM 10.4 °F -5.4 °F 5.0 °F 79% 29.31 in 3.0 mi NNE 13.8 mph 19.6 mph N/A   Overcast
4:56 AM 10.4 °F -5.4 °F 5.0 °F 79% 29.31 in 2.5 mi NNE 13.8 mph - N/A   Overcast
5:16 AM 10.4 °F -6.0 °F 5.0 °F 79% 29.30 in 5.0 mi NNE 15.0 mph 23.0 mph N/A   Overcast
5:36 AM 10.4 °F -5.4 °F 5.0 °F 79% 29.30 in 5.0 mi NNE 13.8 mph - N/A   Mostly Cloudy
5:56 AM 10.4 °F -4.8 °F 5.0 °F 79% 29.29 in 3.0 mi NNE 12.7 mph 19.6 mph N/A   Overcast
6:16 AM 10.4 °F -4.8 °F 5.0 °F 79% 29.28 in 3.0 mi NNE 12.7 mph 16.1 mph N/A   Overcast
6:36 AM 10.4 °F -4.8 °F 5.0 °F 79% 29.28 in 7.0 mi NNE 12.7 mph - N/A   Overcast
6:56 AM 10.4 °F -2.4 °F 5.0 °F 79% 29.28 in 5.0 mi NNE 9.2 mph - N/A   Overcast
7:16 AM 10.4 °F -0.4 °F 5.0 °F 79% 29.28 in 10.0 mi NNE 6.9 mph - N/A   Overcast
7:36 AM 10.4 °F -2.4 °F 3.2 °F 73% 29.27 in 10.0 mi NNE 9.2 mph - N/A   Mostly Cloudy
7:56 AM 10.4 °F -0.4 °F 3.2 °F 73% 29.27 in 10.0 mi NNE 6.9 mph - N/A   Mostly Cloudy
8:16 AM 10.4 °F 0.8 °F 3.2 °F 73% 29.26 in 10.0 mi NNE 5.8 mph - N/A   Overcast
8:36 AM 10.4 °F 2.2 °F 3.2 °F 73% 29.26 in 10.0 mi North 4.6 mph - N/A   Overcast
8:56 AM 10.4 °F 0.8 °F 3.2 °F 73% 29.25 in 10.0 mi NNE 5.8 mph - N/A   Overcast
9:16 AM 10.4 °F 2.2 °F 3.2 °F 73% 29.25 in 8.0 mi NNE 4.6 mph - N/A   Mostly Cloudy
9:36 AM 10.4 °F -0.4 °F 3.2 °F 73% 29.25 in 5.0 mi NE 6.9 mph - N/A   Overcast
9:56 AM 8.6 °F -1.3 °F 3.2 °F 79% 29.25 in 2.5 mi ENE 5.8 mph - N/A   Overcast
10:16 AM 8.6 °F -1.3 °F 3.2 °F 79% 29.25 in 1.8 mi ENE 5.8 mph - N/A   Overcast
10:36 AM 8.6 °F -1.3 °F 3.2 °F 79% 29.25 in 1.2 mi ENE 5.8 mph - N/A   Overcast
10:56 AM 8.6 °F 2.0 °F 3.2 °F 79% 29.25 in 0.8 mi ENE 3.5 mph - N/A   Overcast
11:16 AM 8.6 °F 2.0 °F 3.2 °F 79% 29.24 in 1.8 mi NE 3.5 mph - N/A   Overcast
11:36 AM 8.6 °F -1.3 °F 3.2 °F 79% 29.24 in 2.0 mi ENE 5.8 mph - N/A   Overcast
11:56 AM 8.6 °F 0.1 °F 1.4 °F 73% 29.24 in 2.0 mi ENE 4.6 mph - N/A   Overcast
12:16 PM 8.6 °F 0.1 °F 3.2 °F 79% 29.24 in 1.2 mi ENE 4.6 mph - N/A   Overcast
12:36 PM 8.6 °F 0.1 °F 1.4 °F 73% 29.24 in 1.8 mi East 4.6 mph - N/A   Overcast
12:56 PM 8.6 °F 0.1 °F 1.4 °F 73% 29.23 in 2.0 mi ESE 4.6 mph - N/A   Overcast
1:16 PM 8.6 °F -1.3 °F 1.4 °F 73% 29.23 in 2.5 mi East 5.8 mph - N/A   Overcast
1:36 PM 8.6 °F 0.1 °F 1.4 °F 73% 29.24 in 2.0 mi East 4.6 mph - N/A   Overcast
1:56 PM 8.6 °F 0.1 °F 1.4 °F 73% 29.24 in 2.5 mi East 4.6 mph - N/A   Overcast
2:16 PM 8.6 °F 0.1 °F 1.4 °F 73% 29.24 in 5.0 mi East 4.6 mph - N/A   Overcast
2:36 PM 8.6 °F -1.3 °F 1.4 °F 73% 29.24 in 6.0 mi East 5.8 mph - N/A   Overcast
2:56 PM 8.6 °F -3.7 °F -0.4 °F 67% 29.24 in 7.0 mi East 8.1 mph - N/A   Overcast
3:16 PM 6.8 °F -4.8 °F 1.4 °F 79% 29.24 in 8.0 mi East 6.9 mph - N/A   Overcast
3:36 PM 6.8 °F -5.9 °F -0.4 °F 72% 29.24 in 9.0 mi East 8.1 mph - N/A   Overcast
3:56 PM 6.8 °F -3.5 °F 1.4 °F 79% 29.24 in 9.0 mi East 5.8 mph - N/A   Mostly Cloudy
4:16 PM 6.8 °F -3.5 °F -0.4 °F 72% 29.24 in 6.0 mi East 5.8 mph - N/A   Overcast
4:36 PM 6.8 °F -3.5 °F 1.4 °F 79% 29.24 in 10.0 mi ENE 5.8 mph - N/A   Overcast
4:56 PM 5.0 °F -5.6 °F -0.4 °F 78% 29.25 in 10.0 mi East 5.8 mph - N/A   Overcast
5:16 PM 5.0 °F -4.1 °F -0.4 °F 78% 29.25 in 10.0 mi ENE 4.6 mph - N/A   Overcast
5:36 PM 3.2 °F -9.1 °F -2.2 °F 78% 29.26 in 10.0 mi ENE 6.9 mph - N/A   Scattered Clouds
5:56 PM 1.4 °F -11.3 °F -2.2 °F 85% 29.26 in 10.0 mi NE 6.9 mph - N/A   Partly Cloudy
6:16 PM 1.4 °F -9.9 °F -5.8 °F 72% 29.27 in 10.0 mi ENE 5.8 mph - N/A   Clear
6:36 PM 1.4 °F -9.9 °F -4.0 °F 78% 29.27 in 10.0 mi East 5.8 mph - N/A   Clear
6:56 PM -0.4 °F -12.0 °F -5.8 °F 78% 29.27 in 10.0 mi East 5.8 mph - N/A   Clear
7:16 PM -0.4 °F -12.0 °F -5.8 °F 78% 29.28 in 10.0 mi ENE 5.8 mph - N/A   Clear
7:36 PM -2.2 °F -14.2 °F -7.6 °F 78% 29.29 in 10.0 mi ENE 5.8 mph - N/A   Clear
7:56 PM -2.2 °F -14.2 °F -7.6 °F 78% 29.29 in 10.0 mi East 5.8 mph - N/A   Clear
8:16 PM -2.2 °F -14.2 °F -7.6 °F 78% 29.30 in 10.0 mi East 5.8 mph - N/A   Clear
8:36 PM -4.0 °F -14.6 °F -9.4 °F 78% 29.31 in 10.0 mi ENE 4.6 mph - N/A   Clear
8:56 PM -4.0 °F -17.8 °F -9.4 °F 78% 29.30 in 10.0 mi East 6.9 mph - N/A   Clear
9:16 PM -5.8 °F -16.7 °F -9.4 °F 84% 29.30 in 10.0 mi ENE 4.6 mph - N/A   Clear
9:36 PM -5.8 °F -16.7 °F -11.2 °F 77% 29.30 in 10.0 mi East 4.6 mph - N/A   Clear
9:56 PM -5.8 °F -16.7 °F -9.4 °F 84% 29.31 in 10.0 mi East 4.6 mph - N/A   Clear
10:16 PM -5.8 °F -18.4 °F -11.2 °F 77% 29.33 in 10.0 mi NE 5.8 mph - N/A   Clear
10:36 PM -5.8 °F -16.7 °F -11.2 °F 77% 29.33 in 10.0 mi ENE 4.6 mph - N/A   Clear
10:56 PM -7.6 °F -20.6 °F -11.2 °F 84% 29.33 in 10.0 mi East 5.8 mph - N/A   Clear
11:16 PM -7.6 °F -20.6 °F -11.2 °F 84% 29.33 in 10.0 mi East 5.8 mph - N/A   Clear
11:36 PM -7.6 °F -16.5 °F -11.2 °F 84% 29.34 in 10.0 mi NE 3.5 mph - N/A   Clear
11:56 PM -7.6 °F -20.6 °F -11.2 °F 84% 29.35 in 10.0 mi North 5.8 mph - N/A   Clear